"Sample Date","Sample Time","Sensor Name","Sample Value","Units","Flow Rate","Sample Interval","Sample Volume","Laser Status","Number Channels","Micron Size 0","Counts/Channel 0","Micron Size 1","Counts/Channel 1","Micron Size 2","Counts/Channel 2","Micron Size 3","Counts/Channel 3","Micron Size 4","Counts/Channel 4","Micron Size 5","Counts/Channel 5","Micron Size 6","Counts/Channel 6","Micron Size 7","Counts/Channel 7","Micron Size 8","Counts/Channel 8","Micron Size 9","Counts/Channel 9","Micron Size 10","Counts/Channel 10","Micron Size 11","Counts/Channel 11","Micron Size 12","Counts/Channel 12","Micron Size 13","Counts/Channel 13","Micron Size 14","Counts/Channel 14","Micron Size 15","Counts/Channel 15","Micron Size 16","Counts/Channel 16","Micron Size 17","Counts/Channel 17","Micron Size 18","Counts/Channel 18","Micron Size 19","Counts/Channel 19","Micron Size 20","Counts/Channel 20","Micron Size 21","Counts/Channel 21","Micron Size 22","Counts/Channel 22","Micron Size 23","Counts/Channel 23","Micron Size 24","Counts/Channel 24","Micron Size 25","Counts/Channel 25","Micron Size 26","Counts/Channel 26","Micron Size 27","Counts/Channel 27","Micron Size 28","Counts/Channel 28","Micron Size 29","Counts/Channel 29","Micron Size 30","Counts/Channel 30","Micron Size 31","Counts/Channel 31"
"07/02/06","21:00:02","AMMA06",78871.000,"cc",28267.309,6.00,2826.731,1,6,0.100,46881.000,0.200,24302.000,0.300,4740.000,0.500,1779.000,1.000,1169.000,5.000,0
"07/02/06","21:00:08","AMMA06",78907.000,"cc",28300.160,6.00,2830.016,1,6,0.100,46746.000,0.200,24483.000,0.300,4666.000,0.500,1849.000,1.000,1162.000,5.000,1.000
"07/02/06","21:00:14","AMMA06",78348.000,"cc",28336.172,6.00,2833.617,1,6,0.100,46695.000,0.200,24061.000,0.300,4648.000,0.500,1834.000,1.000,1110.000,5.000,0
"07/02/06","21:00:20","AMMA06",78811.000,"cc",28375.875,6.00,2837.588,1,6,0.100,46789.000,0.200,24414.000,0.300,4663.000,0.500,1835.000,1.000,1109.000,5.000,1.000
"07/02/06","21:00:26","AMMA06",78769.000,"cc",28327.631,6.00,2832.763,1,6,0.100,46478.000,0.200,24669.000,0.300,4652.000,0.500,1821.000,1.000,1147.000,5.000,2.000
"07/02/06","21:00:32","AMMA06",78917.000,"cc",28300.848,6.00,2830.085,1,6,0.100,46656.000,0.200,24530.000,0.300,4688.000,0.500,1853.000,1.000,1189.000,5.000,1.000
"07/02/06","21:00:38","AMMA06",78366.000,"cc",28318.670,6.00,2831.867,1,6,0.100,46717.000,0.200,24126.000,0.300,4570.000,0.500,1839.000,1.000,1114.000,5.000,0
"07/02/06","21:00:44","AMMA06",78867.000,"cc",28315.906,6.00,2831.591,1,6,0.100,46747.000,0.200,24568.000,0.300,4578.000,0.500,1785.000,1.000,1189.000,5.000,0
"07/02/06","21:00:50","AMMA06",79185.000,"cc",28324.854,6.00,2832.486,1,6,0.100,46948.000,0.200,24575.000,0.300,4692.000,0.500,1853.000,1.000,1116.000,5.000,1.000
"07/02/06","21:00:56","AMMA06",79217.000,"cc",28318.076,6.00,2831.808,1,6,0.100,46857.000,0.200,24639.000,0.300,4651.000,0.500,1915.000,1.000,1153.000,5.000,2.000
"07/02/06","21:01:02","AMMA06",79150.000,"cc",28347.510,6.00,2834.751,1,6,0.100,46429.000,0.200,24932.000,0.300,4753.000,0.500,1881.000,1.000,1155.000,5.000,0
"07/02/06","21:01:08","AMMA06",79140.000,"cc",28270.826,6.00,2827.083,1,6,0.100,46462.000,0.200,24872.000,0.300,4833.000,0.500,1822.000,1.000,1150.000,5.000,1.000
"07/02/06","21:01:14","AMMA06",78792.000,"cc",28310.184,6.00,2831.019,1,6,0.100,46855.000,0.200,24371.000,0.300,4591.000,0.500,1747.000,1.000,1228.000,5.000,0
"07/02/06","21:01:20","AMMA06",78958.000,"cc",28271.973,6.00,2827.198,1,6,0.100,46512.000,0.200,24615.000,0.300,4853.000,0.500,1830.000,1.000,1147.000,5.000,1.000
"07/02/06","21:01:26","AMMA06",79331.000,"cc",28330.115,6.00,2833.012,1,6,0.100,46701.000,0.200,25067.000,0.300,4665.000,0.500,1764.000,1.000,1133.000,5.000,1.000
"07/02/06","21:01:32","AMMA06",79061.000,"cc",28314.979,6.00,2831.498,1,6,0.100,46679.000,0.200,24562.000,0.300,4797.000,0.500,1859.000,1.000,1163.000,5.000,1.000
"07/02/06","21:01:38","AMMA06",79245.000,"cc",28280.303,6.00,2828.031,1,6,0.100,46645.000,0.200,24806.000,0.300,4778.000,0.500,1884.000,1.000,1132.000,5.000,0
"07/02/06","21:01:44","AMMA06",78991.000,"cc",28347.555,6.00,2834.756,1,6,0.100,46585.000,0.200,24675.000,0.300,4738.000,0.500,1873.000,1.000,1120.000,5.000,0
"07/02/06","21:01:50","AMMA06",79357.000,"cc",28317.857,6.00,2831.786,1,6,0.100,46447.000,0.200,24909.000,0.300,4977.000,0.500,1875.000,1.000,1148.000,5.000,1.000
"07/02/06","21:01:56","AMMA06",79045.000,"cc",28308.672,6.00,2830.867,1,6,0.100,46461.000,0.200,24782.000,0.300,4787.000,0.500,1815.000,1.000,1200.000,5.000,0
"07/02/06","21:02:02","AMMA06",79037.000,"cc",28367.764,6.00,2836.777,1,6,0.100,46557.000,0.200,24561.000,0.300,4965.000,0.500,1811.000,1.000,1142.000,5.000,1.000
"07/02/06","21:02:08","AMMA06",78964.000,"cc",28293.543,6.00,2829.355,1,6,0.100,46154.000,0.200,24933.000,0.300,4788.000,0.500,1929.000,1.000,1156.000,5.000,4.000
"07/02/06","21:02:14","AMMA06",79220.000,"cc",28318.525,6.00,2831.853,1,6,0.100,46455.000,0.200,24950.000,0.300,4841.000,0.500,1842.000,1.000,1130.000,5.000,2.000
"07/02/06","21:02:20","AMMA06",79134.000,"cc",28368.311,6.00,2836.831,1,6,0.100,46352.000,0.200,24922.000,0.300,4804.000,0.500,1892.000,1.000,1164.000,5.000,0
"07/02/06","21:02:26","AMMA06",78801.000,"cc",28316.873,6.00,2831.688,1,6,0.100,46530.000,0.200,24570.000,0.300,4757.000,0.500,1779.000,1.000,1165.000,5.000,0
"07/02/06","21:02:32","AMMA06",78891.000,"cc",28317.156,6.00,2831.716,1,6,0.100,46525.000,0.200,24677.000,0.300,4736.000,0.500,1818.000,1.000,1135.000,5.000,0
"07/02/06","21:02:38","AMMA06",79334.000,"cc",28265.506,6.00,2826.551,1,6,0.100,46542.000,0.200,24926.000,0.300,4800.000,0.500,1869.000,1.000,1197.000,5.000,0
"07/02/06","21:02:44","AMMA06",79281.000,"cc",28302.221,6.00,2830.222,1,6,0.100,46534.000,0.200,24896.000,0.300,4783.000,0.500,1905.000,1.000,1163.000,5.000,0
"07/02/06","21:02:50","AMMA06",79340.000,"cc",28373.291,6.00,2837.329,1,6,0.100,46403.000,0.200,24934.000,0.300,4904.000,0.500,1887.000,1.000,1210.000,5.000,2.000
"07/02/06","21:02:56","AMMA06",79029.000,"cc",28329.773,6.00,2832.978,1,6,0.100,46217.000,0.200,24932.000,0.300,4880.000,0.500,1833.000,1.000,1167.000,5.000,0
"07/02/06","21:03:02","AMMA06",79086.000,"cc",28334.639,6.00,2833.464,1,6,0.100,46318.000,0.200,24941.000,0.300,4872.000,0.500,1780.000,1.000,1173.000,5.000,2.000
"07/02/06","21:03:08","AMMA06",79499.000,"cc",28290.357,6.00,2829.036,1,6,0.100,46260.000,0.200,25253.000,0.300,4957.000,0.500,1842.000,1.000,1187.000,5.000,0
"07/02/06","21:03:14","AMMA06",78611.000,"cc",28321.221,6.00,2832.122,1,6,0.100,45939.000,0.200,24667.000,0.300,4953.000,0.500,1860.000,1.000,1192.000,5.000,0
"07/02/06","21:03:20","AMMA06",79012.000,"cc",28321.539,6.00,2832.154,1,6,0.100,46313.000,0.200,24851.000,0.300,4870.000,0.500,1810.000,1.000,1167.000,5.000,1.000
"07/02/06","21:03:26","AMMA06",79583.000,"cc",28297.354,6.00,2829.736,1,6,0.100,46776.000,0.200,24971.000,0.300,4953.000,0.500,1788.000,1.000,1095.000,5.000,0
"07/02/06","21:03:32","AMMA06",78945.000,"cc",28294.020,6.00,2829.402,1,6,0.100,46251.000,0.200,24825.000,0.300,4823.000,0.500,1891.000,1.000,1155.000,5.000,0
"07/02/06","21:03:38","AMMA06",78715.000,"cc",28319.834,6.00,2831.984,1,6,0.100,46113.000,0.200,24909.000,0.300,4718.000,0.500,1824.000,1.000,1150.000,5.000,1.000
"07/02/06","21:03:44","AMMA06",79377.000,"cc",28340.365,6.00,2834.037,1,6,0.100,46819.000,0.200,24766.000,0.300,4816.000,0.500,1831.000,1.000,1142.000,5.000,3.000
"07/02/06","21:03:50","AMMA06",78884.000,"cc",28366.404,6.00,2836.641,1,6,0.100,46328.000,0.200,24732.000,0.300,4844.000,0.500,1846.000,1.000,1133.000,5.000,1.000
"07/02/06","21:03:56","AMMA06",78286.000,"cc",28302.098,6.00,2830.210,1,6,0.100,46206.000,0.200,24385.000,0.300,4763.000,0.500,1795.000,1.000,1137.000,5.000,0
"07/02/06","21:04:02","AMMA06",78820.000,"cc",28286.645,6.00,2828.665,1,6,0.100,46582.000,0.200,24500.000,0.300,4821.000,0.500,1802.000,1.000,1113.000,5.000,2.000
"07/02/06","21:04:08","AMMA06",78388.000,"cc",28292.627,6.00,2829.263,1,6,0.100,46329.000,0.200,24181.000,0.300,4821.000,0.500,1867.000,1.000,1187.000,5.000,3.000
"07/02/06","21:04:14","AMMA06",78823.000,"cc",28285.186,6.00,2828.519,1,6,0.100,46438.000,0.200,24782.000,0.300,4627.000,0.500,1850.000,1.000,1125.000,5.000,1.000
"07/02/06","21:04:20","AMMA06",79102.000,"cc",28359.018,6.00,2835.902,1,6,0.100,46691.000,0.200,24759.000,0.300,4708.000,0.500,1808.000,1.000,1136.000,5.000,0
"07/02/06","21:04:26","AMMA06",78927.000,"cc",28297.602,6.00,2829.760,1,6,0.100,46600.000,0.200,24689.000,0.300,4695.000,0.500,1786.000,1.000,1155.000,5.000,2.000
"07/02/06","21:04:32","AMMA06",78837.000,"cc",28351.873,6.00,2835.188,1,6,0.100,46708.000,0.200,24498.000,0.300,4706.000,0.500,1831.000,1.000,1092.000,5.000,2.000
"07/02/06","21:04:38","AMMA06",78290.000,"cc",28309.354,6.00,2830.936,1,6,0.100,46361.000,0.200,24329.000,0.300,4615.000,0.500,1795.000,1.000,1190.000,5.000,0
"07/02/06","21:04:44","AMMA06",78154.000,"cc",28295.633,6.00,2829.564,1,6,0.100,46300.000,0.200,24250.000,0.300,4667.000,0.500,1786.000,1.000,1150.000,5.000,1.000
"07/02/06","21:04:50","AMMA06",78658.000,"cc",28287.332,6.00,2828.733,1,6,0.100,46701.000,0.200,24260.000,0.300,4754.000,0.500,1795.000,1.000,1146.000,5.000,2.000
"07/02/06","21:04:56","AMMA06",78753.000,"cc",28305.244,6.00,2830.525,1,6,0.100,46701.000,0.200,24451.000,0.300,4638.000,0.500,1822.000,1.000,1141.000,5.000,0
"07/02/06","21:05:02","AMMA06",79148.000,"cc",28352.588,6.00,2835.259,1,6,0.100,46872.000,0.200,24562.000,0.300,4719.000,0.500,1874.000,1.000,1119.000,5.000,2.000
"07/02/06","21:05:08","AMMA06",78768.000,"cc",28331.900,6.00,2833.190,1,6,0.100,46349.000,0.200,24618.000,0.300,4769.000,0.500,1881.000,1.000,1150.000,5.000,1.000
"07/02/06","21:05:14","AMMA06",78951.000,"cc",28295.342,6.00,2829.534,1,6,0.100,46975.000,0.200,24265.000,0.300,4617.000,0.500,1902.000,1.000,1192.000,5.000,0
"07/02/06","21:05:20","AMMA06",78838.000,"cc",28311.883,6.00,2831.189,1,6,0.100,47014.000,0.200,24272.000,0.300,4607.000,0.500,1812.000,1.000,1133.000,5.000,0
"07/02/06","21:05:26","AMMA06",78505.000,"cc",28309.273,6.00,2830.928,1,6,0.100,46787.000,0.200,24059.000,0.300,4669.000,0.500,1813.000,1.000,1176.000,5.000,1.000
"07/02/06","21:05:32","AMMA06",79127.000,"cc",28334.023,6.00,2833.403,1,6,0.100,46929.000,0.200,24641.000,0.300,4577.000,0.500,1877.000,1.000,1103.000,5.000,0
"07/02/06","21:05:38","AMMA06",78479.000,"cc",28345.297,6.00,2834.530,1,6,0.100,46740.000,0.200,24146.000,0.300,4611.000,0.500,1863.000,1.000,1119.000,5.000,0
"07/02/06","21:05:44","AMMA06",78844.000,"cc",28298.818,6.00,2829.882,1,6,0.100,47080.000,0.200,24184.000,0.300,4663.000,0.500,1783.000,1.000,1134.000,5.000,0
"07/02/06","21:05:50","AMMA06",79146.000,"cc",28274.096,6.00,2827.410,1,6,0.100,46929.000,0.200,24500.000,0.300,4657.000,0.500,1915.000,1.000,1145.000,5.000,0
"07/02/06","21:05:56","AMMA06",78299.000,"cc",28298.992,6.00,2829.899,1,6,0.100,46628.000,0.200,24106.000,0.300,4642.000,0.500,1829.000,1.000,1094.000,5.000,0
"07/02/06","21:06:02","AMMA06",78794.000,"cc",28316.520,6.00,2831.652,1,6,0.100,47095.000,0.200,24256.000,0.300,4511.000,0.500,1836.000,1.000,1095.000,5.000,1.000
"07/02/06","21:06:08","AMMA06",78704.000,"cc",28386.834,6.00,2838.684,1,6,0.100,46907.000,0.200,24084.000,0.300,4685.000,0.500,1832.000,1.000,1193.000,5.000,3.000
"07/02/06","21:06:14","AMMA06",78452.000,"cc",28294.217,6.00,2829.422,1,6,0.100,46744.000,0.200,24211.000,0.300,4580.000,0.500,1794.000,1.000,1123.000,5.000,0
"07/02/06","21:06:20","AMMA06",78858.000,"cc",28286.846,6.00,2828.685,1,6,0.100,47129.000,0.200,24167.000,0.300,4609.000,0.500,1800.000,1.000,1153.000,5.000,0
"07/02/06","21:06:26","AMMA06",78928.000,"cc",28320.895,6.00,2832.090,1,6,0.100,47195.000,0.200,24204.000,0.300,4598.000,0.500,1819.000,1.000,1110.000,5.000,2.000
"07/02/06","21:06:32","AMMA06",79243.000,"cc",28328.129,6.00,2832.813,1,6,0.100,47244.000,0.200,24283.000,0.300,4740.000,0.500,1860.000,1.000,1115.000,5.000,1.000
"07/02/06","21:06:38","AMMA06",79080.000,"cc",28298.897,6.00,2829.890,1,6,0.100,47117.000,0.200,24268.000,0.300,4703.000,0.500,1903.000,1.000,1088.000,5.000,1.000
"07/02/06","21:06:44","AMMA06",79312.000,"cc",28351.385,6.00,2835.139,1,6,0.100,47327.000,0.200,24308.000,0.300,4675.000,0.500,1815.000,1.000,1186.000,5.000,1.000
"07/02/06","21:06:50","AMMA06",78613.000,"cc",28310.904,6.00,2831.091,1,6,0.100,46825.000,0.200,24169.000,0.300,4672.000,0.500,1834.000,1.000,1113.000,5.000,0
"07/02/06","21:06:56","AMMA06",78661.000,"cc",28308.623,6.00,2830.863,1,6,0.100,46904.000,0.200,24275.000,0.300,4495.000,0.500,1872.000,1.000,1114.000,5.000,1.000
"07/02/06","21:07:02","AMMA06",78613.000,"cc",28291.402,6.00,2829.140,1,6,0.100,46951.000,0.200,24161.000,0.300,4584.000,0.500,1790.000,1.000,1127.000,5.000,0
"07/02/06","21:07:08","AMMA06",78662.000,"cc",28315.926,6.00,2831.593,1,6,0.100,46721.000,0.200,24256.000,0.300,4664.000,0.500,1850.000,1.000,1171.000,5.000,0
"07/02/06","21:07:14","AMMA06",78786.000,"cc",28388.975,6.00,2838.898,1,6,0.100,46955.000,0.200,24166.000,0.300,4648.000,0.500,1906.000,1.000,1110.000,5.000,1.000
"07/02/06","21:07:20","AMMA06",78450.000,"cc",28266.930,6.00,2826.693,1,6,0.100,46578.000,0.200,24208.000,0.300,4699.000,0.500,1896.000,1.000,1066.000,5.000,3.000
"07/02/06","21:07:26","AMMA06",78652.000,"cc",28305.525,6.00,2830.553,1,6,0.100,46680.000,0.200,24388.000,0.300,4623.000,0.500,1851.000,1.000,1109.000,5.000,1.000
"07/02/06","21:07:32","AMMA06",78371.000,"cc",28299.441,6.00,2829.944,1,6,0.100,46657.000,0.200,24229.000,0.300,4610.000,0.500,1799.000,1.000,1076.000,5.000,0
"07/02/06","21:07:38","AMMA06",78954.000,"cc",28324.180,6.00,2832.418,1,6,0.100,47044.000,0.200,24372.000,0.300,4601.000,0.500,1810.000,1.000,1126.000,5.000,1.000
"07/02/06","21:07:44","AMMA06",78759.000,"cc",28344.502,6.00,2834.450,1,6,0.100,46896.000,0.200,24169.000,0.300,4661.000,0.500,1857.000,1.000,1176.000,5.000,0
"07/02/06","21:07:50","AMMA06",78130.000,"cc",28350.740,6.00,2835.074,1,6,0.100,46379.000,0.200,24154.000,0.300,4665.000,0.500,1802.000,1.000,1128.000,5.000,2.000
"07/02/06","21:07:56","AMMA06",78965.000,"cc",28324.938,6.00,2832.494,1,6,0.100,46787.000,0.200,24429.000,0.300,4720.000,0.500,1878.000,1.000,1150.000,5.000,1.000
"07/02/06","21:08:02","AMMA06",78321.000,"cc",28308.764,6.00,2830.877,1,6,0.100,46335.000,0.200,24360.000,0.300,4715.000,0.500,1784.000,1.000,1126.000,5.000,1.000
"07/02/06","21:08:08","AMMA06",78875.000,"cc",28277.807,6.00,2827.781,1,6,0.100,46759.000,0.200,24372.000,0.300,4758.000,0.500,1866.000,1.000,1120.000,5.000,0
"07/02/06","21:08:14","AMMA06",78710.000,"cc",28308.500,6.00,2830.850,1,6,0.100,46711.000,0.200,24292.000,0.300,4713.000,0.500,1845.000,1.000,1149.000,5.000,0
"07/02/06","21:08:20","AMMA06",78792.000,"cc",28298.395,6.00,2829.840,1,6,0.100,46629.000,0.200,24460.000,0.300,4758.000,0.500,1780.000,1.000,1165.000,5.000,0
"07/02/06","21:08:26","AMMA06",78409.000,"cc",28367.740,6.00,2836.774,1,6,0.100,46369.000,0.200,24421.000,0.300,4702.000,0.500,1768.000,1.000,1148.000,5.000,1.000
"07/02/06","21:08:32","AMMA06",78668.000,"cc",28314.311,6.00,2831.431,1,6,0.100,46565.000,0.200,24386.000,0.300,4768.000,0.500,1761.000,1.000,1187.000,5.000,1.000
"07/02/06","21:08:38","AMMA06",79073.000,"cc",28291.451,6.00,2829.145,1,6,0.100,47048.000,0.200,24475.000,0.300,4676.000,0.500,1731.000,1.000,1143.000,5.000,0
"07/02/06","21:08:44","AMMA06",78928.000,"cc",28315.307,6.00,2831.531,1,6,0.100,46668.000,0.200,24707.000,0.300,4624.000,0.500,1801.000,1.000,1128.000,5.000,0
"07/02/06","21:08:50","AMMA06",78561.000,"cc",28324.713,6.00,2832.471,1,6,0.100,46441.000,0.200,24426.000,0.300,4743.000,0.500,1822.000,1.000,1128.000,5.000,1.000
"07/02/06","21:08:56","AMMA06",79321.000,"cc",28340.137,6.00,2834.014,1,6,0.100,46908.000,0.200,24626.000,0.300,4759.000,0.500,1842.000,1.000,1186.000,5.000,0
"07/02/06","21:09:02","AMMA06",78956.000,"cc",28315.443,6.00,2831.544,1,6,0.100,46966.000,0.200,24301.000,0.300,4713.000,0.500,1863.000,1.000,1109.000,5.000,4.000
"07/02/06","21:09:08","AMMA06",78878.000,"cc",28281.539,6.00,2828.154,1,6,0.100,46539.000,0.200,24532.000,0.300,4802.000,0.500,1805.000,1.000,1199.000,5.000,1.000
"07/02/06","21:09:14","AMMA06",79003.000,"cc",28325.639,6.00,2832.564,1,6,0.100,46694.000,0.200,24559.000,0.300,4739.000,0.500,1845.000,1.000,1164.000,5.000,2.000
"07/02/06","21:09:20","AMMA06",78767.000,"cc",28340.328,6.00,2834.033,1,6,0.100,46864.000,0.200,24211.000,0.300,4641.000,0.500,1889.000,1.000,1161.000,5.000,1.000
"07/02/06","21:09:26","AMMA06",79539.000,"cc",28270.857,6.00,2827.086,1,6,0.100,47099.000,0.200,24646.000,0.300,4849.000,0.500,1853.000,1.000,1090.000,5.000,2.000
"07/02/06","21:09:32","AMMA06",78518.000,"cc",28335.619,6.00,2833.562,1,6,0.100,46361.000,0.200,24426.000,0.300,4700.000,0.500,1842.000,1.000,1189.000,5.000,0
"07/02/06","21:09:38","AMMA06",78787.000,"cc",28340.346,6.00,2834.035,1,6,0.100,46793.000,0.200,24371.000,0.300,4622.000,0.500,1824.000,1.000,1174.000,5.000,3.000
"07/02/06","21:09:44","AMMA06",78642.000,"cc",28355.020,6.00,2835.502,1,6,0.100,46613.000,0.200,24458.000,0.300,4606.000,0.500,1857.000,1.000,1108.000,5.000,0
"07/02/06","21:09:50","AMMA06",78745.000,"cc",28292.934,6.00,2829.294,1,6,0.100,46605.000,0.200,24322.000,0.300,4797.000,0.500,1878.000,1.000,1143.000,5.000,0
"07/02/06","21:09:56","AMMA06",78823.000,"cc",28327.244,6.00,2832.725,1,6,0.100,46543.000,0.200,24598.000,0.300,4701.000,0.500,1826.000,1.000,1155.000,5.000,0
"07/02/06","21:10:02","AMMA06",79013.000,"cc",28311.811,6.00,2831.181,1,6,0.100,46778.000,0.200,24547.000,0.300,4756.000,0.500,1792.000,1.000,1140.000,5.000,0
"07/02/06","21:10:08","AMMA06",78843.000,"cc",28284.867,6.00,2828.487,1,6,0.100,46650.000,0.200,24512.000,0.300,4745.000,0.500,1792.000,1.000,1143.000,5.000,1.000
"07/02/06","21:10:14","AMMA06",78780.000,"cc",28336.703,6.00,2833.670,1,6,0.100,46489.000,0.200,24691.000,0.300,4698.000,0.500,1815.000,1.000,1083.000,5.000,4.000
"07/02/06","21:10:20","AMMA06",78930.000,"cc",28277.602,6.00,2827.760,1,6,0.100,46701.000,0.200,24476.000,0.300,4758.000,0.500,1808.000,1.000,1187.000,5.000,0
"07/02/06","21:10:26","AMMA06",78601.000,"cc",28278.736,6.00,2827.874,1,6,0.100,46403.000,0.200,24553.000,0.300,4717.000,0.500,1771.000,1.000,1156.000,5.000,1.000
"07/02/06","21:10:32","AMMA06",78888.000,"cc",28352.979,6.00,2835.298,1,6,0.100,46514.000,0.200,24705.000,0.300,4703.000,0.500,1837.000,1.000,1129.000,5.000,0
"07/02/06","21:10:38","AMMA06",78340.000,"cc",28379.479,6.00,2837.948,1,6,0.100,46113.000,0.200,24721.000,0.300,4672.000,0.500,1705.000,1.000,1127.000,5.000,2.000
"07/02/06","21:10:44","AMMA06",78706.000,"cc",28331.436,6.00,2833.144,1,6,0.100,46460.000,0.200,24461.000,0.300,4762.000,0.500,1797.000,1.000,1226.000,5.000,0
"07/02/06","21:10:50","AMMA06",79136.000,"cc",28268.481,6.00,2826.848,1,6,0.100,46477.000,0.200,24871.000,0.300,4833.000,0.500,1781.000,1.000,1174.000,5.000,0
"07/02/06","21:10:56","AMMA06",79528.000,"cc",28296.354,6.00,2829.636,1,6,0.100,46474.000,0.200,25237.000,0.300,4853.000,0.500,1800.000,1.000,1163.000,5.000,1.000
"07/02/06","21:11:02","AMMA06",79056.000,"cc",28346.611,6.00,2834.661,1,6,0.100,46439.000,0.200,24831.000,0.300,4837.000,0.500,1796.000,1.000,1153.000,5.000,0
"07/02/06","21:11:08","AMMA06",79012.000,"cc",28345.162,6.00,2834.516,1,6,0.100,46443.000,0.200,24638.000,0.300,4896.000,0.500,1828.000,1.000,1206.000,5.000,1.000
"07/02/06","21:11:14","AMMA06",78647.000,"cc",28296.768,6.00,2829.677,1,6,0.100,46250.000,0.200,24757.000,0.300,4733.000,0.500,1782.000,1.000,1125.000,5.000,0
"07/02/06","21:11:20","AMMA06",78989.000,"cc",28305.561,6.00,2830.556,1,6,0.100,46001.000,0.200,25054.000,0.300,4924.000,0.500,1845.000,1.000,1165.000,5.000,0
"07/02/06","21:11:26","AMMA06",79250.000,"cc",28310.623,6.00,2831.063,1,6,0.100,46300.000,0.200,24845.000,0.300,5072.000,0.500,1884.000,1.000,1148.000,5.000,1.000
"07/02/06","21:11:32","AMMA06",79178.000,"cc",28282.188,6.00,2828.219,1,6,0.100,46380.000,0.200,24866.000,0.300,4953.000,0.500,1794.000,1.000,1183.000,5.000,2.000
"07/02/06","21:11:38","AMMA06",79480.000,"cc",28344.336,6.00,2834.434,1,6,0.100,46565.000,0.200,25012.000,0.300,4906.000,0.500,1832.000,1.000,1164.000,5.000,1.000
"07/02/06","21:11:44","AMMA06",79031.000,"cc",28355.328,6.00,2835.533,1,6,0.100,46428.000,0.200,24815.000,0.300,4893.000,0.500,1790.000,1.000,1105.000,5.000,0
"07/02/06","21:11:50","AMMA06",78950.000,"cc",28297.262,6.00,2829.726,1,6,0.100,46153.000,0.200,24888.000,0.300,4898.000,0.500,1822.000,1.000,1188.000,5.000,1.000
"07/02/06","21:11:56","AMMA06",78899.000,"cc",28347.166,6.00,2834.717,1,6,0.100,46600.000,0.200,24614.000,0.300,4794.000,0.500,1734.000,1.000,1157.000,5.000,0
"07/02/06","21:12:02","AMMA06",79174.000,"cc",28357.779,6.00,2835.778,1,6,0.100,46522.000,0.200,24789.000,0.300,4857.000,0.500,1880.000,1.000,1125.000,5.000,1.000
"07/02/06","21:12:08","AMMA06",79469.000,"cc",28273.305,6.00,2827.331,1,6,0.100,46746.000,0.200,24919.000,0.300,4828.000,0.500,1830.000,1.000,1146.000,5.000,0
"07/02/06","21:12:14","AMMA06",79346.000,"cc",28326.137,6.00,2832.614,1,6,0.100,46622.000,0.200,24935.000,0.300,4814.000,0.500,1794.000,1.000,1180.000,5.000,1.000
"07/02/06","21:12:20","AMMA06",78854.000,"cc",28351.012,6.00,2835.101,1,6,0.100,46470.000,0.200,24565.000,0.300,4804.000,0.500,1820.000,1.000,1193.000,5.000,2.000
"07/02/06","21:12:26","AMMA06",78488.000,"cc",28275.522,6.00,2827.552,1,6,0.100,46372.000,0.200,24437.000,0.300,4746.000,0.500,1762.000,1.000,1168.000,5.000,3.000
"07/02/06","21:12:32","AMMA06",79195.000,"cc",28349.801,6.00,2834.980,1,6,0.100,46886.000,0.200,24701.000,0.300,4784.000,0.500,1722.000,1.000,1100.000,5.000,2.000
"07/02/06","21:12:38","AMMA06",78847.000,"cc",28279.731,6.00,2827.973,1,6,0.100,46439.000,0.200,24719.000,0.300,4786.000,0.500,1791.000,1.000,1109.000,5.000,3.000
"07/02/06","21:12:44","AMMA06",78724.000,"cc",28312.242,6.00,2831.224,1,6,0.100,46383.000,0.200,24611.000,0.300,4786.000,0.500,1784.000,1.000,1160.000,5.000,0
"07/02/06","21:12:50","AMMA06",78818.000,"cc",28266.078,6.00,2826.608,1,6,0.100,46738.000,0.200,24427.000,0.300,4742.000,0.500,1770.000,1.000,1140.000,5.000,1.000
"07/02/06","21:12:56","AMMA06",79141.000,"cc",28334.023,6.00,2833.403,1,6,0.100,46823.000,0.200,24626.000,0.300,4770.000,0.500,1783.000,1.000,1138.000,5.000,1.000
"07/02/06","21:13:02","AMMA06",78467.000,"cc",28323.932,6.00,2832.393,1,6,0.100,46472.000,0.200,24254.000,0.300,4804.000,0.500,1774.000,1.000,1163.000,5.000,0
"07/02/06","21:13:08","AMMA06",79343.000,"cc",28287.920,6.00,2828.792,1,6,0.100,46795.000,0.200,24839.000,0.300,4765.000,0.500,1816.000,1.000,1127.000,5.000,1.000
"07/02/06","21:13:14","AMMA06",78737.000,"cc",28343.465,6.00,2834.347,1,6,0.100,46702.000,0.200,24370.000,0.300,4784.000,0.500,1756.000,1.000,1124.000,5.000,1.000
"07/02/06","21:13:20","AMMA06",78434.000,"cc",28325.893,6.00,2832.589,1,6,0.100,46590.000,0.200,24233.000,0.300,4751.000,0.500,1776.000,1.000,1084.000,5.000,0
"07/02/06","21:13:26","AMMA06",78921.000,"cc",28352.379,6.00,2835.238,1,6,0.100,46818.000,0.200,24359.000,0.300,4770.000,0.500,1845.000,1.000,1129.000,5.000,0
"07/02/06","21:13:32","AMMA06",78800.000,"cc",28292.666,6.00,2829.267,1,6,0.100,46550.000,0.200,24480.000,0.300,4813.000,0.500,1839.000,1.000,1118.000,5.000,0
"07/02/06","21:13:38","AMMA06",78826.000,"cc",28276.514,6.00,2827.652,1,6,0.100,46876.000,0.200,24397.000,0.300,4596.000,0.500,1812.000,1.000,1143.000,5.000,2.000
"07/02/06","21:13:44","AMMA06",78799.000,"cc",28289.203,6.00,2828.920,1,6,0.100,46834.000,0.200,24450.000,0.300,4587.000,0.500,1799.000,1.000,1127.000,5.000,2.000
"07/02/06","21:13:50","AMMA06",78634.000,"cc",28344.434,6.00,2834.444,1,6,0.100,46613.000,0.200,24353.000,0.300,4759.000,0.500,1808.000,1.000,1099.000,5.000,2.000